www.pogodaiklimat.ru

Погода и климат >> Архив погоды >> ОАЭ >> Ras Al Khaimah Int Airport


ПОГОДА в Ras Al Khaimah Int Airport

  • Прогноз погоды в Ras Al Khaimah Int Airport
  • Монитор погоды в Ras Al Khaimah Int Airport
  • Климат города

АРХИВ ПОГОДЫ в Ras Al Khaimah Int Airport

Время (UTC), дата Ветер
(напр.,м/с)
 
Видим.   Явления Облачность Т
(С)
Тd
(С)
f
(%)
Тe
(С)
Тes
(С)
Комфортность P
(гПа)
Po
(гПа)
Тmin
(С)
Tmax
(С)
R
(мм)
R24
(мм)
S
(см)
18 12.07 СЗ 3 7000 м пыль ясно +33.8 +24.5 58 +46 +46 опасность
перегрева
993.7 994.0 +44.3
21 12.07 ЮВ 2 6000 м пыль ясно +31.7 +24.4 65 +44 +44 опасность
перегрева
993.3 993.0
00 13.07 Ю 2 7000 м пыль ясно +30.8 +20.1 53 +37 +37 очень
душно
992.7 993.0
03 13.07 ЮЗ 2 6000 м пыль 3/0
[Ac trans]
+31.4 +20.4 52 +38 +40 очень
душно
993.0 993.0
06 13.07 нст 1 7000 м пыль 1/0
[Ac trans]
+37.9 +25.9 51 +53 +71 опасность
перегрева
993.7 994.0 +28.8
09 13.07 СЗ 6 8000 м пыль 1/0
[Ac trans]
+41.4 +19.8 29 +46 +55 опасность
перегрева
993.5 994.0
12 13.07 СЗ 5 10 км ясно +42.8 +14.3 19 +43 +48 опасность
перегрева
991.5 992.0
15 13.07 С 2 10 км ясно +40.2 +18.8 29 +44 +44 опасность
перегрева
992.0 992.0
18 13.07 С 2 8000 м пыль ясно +34.3 +24.5 57 +47 +47 опасность
перегрева
993.7 994.0 +44.5
21 13.07 С 1 7000 м пыль ясно +32.8 +26.6 70 +50 +50 опасность
перегрева
993.6 994.0
00 14.07 Ю 3 7000 м пыль ясно +30.3 +24.7 72 +43 +43 опасность
перегрева
992.9 993.0
03 14.07 СВ 2 6000 м пыль ясно +31.9 +24.8 66 +45 +47 опасность
перегрева
994.1 994.0
06 14.07 В 3 8000 м пыль ясно +41.4 +20.9 31 +48 +61 опасность
перегрева
994.4 994.0 +29.9
09 14.07 СЗ 5 10 км ясно +41.1 +24.2 39 +52 +65 опасность
перегрева
993.5 994.0
12 14.07 СЗ 6 10 км ясно +42.4 +17.8 24 +45 +49 опасность
перегрева
992.2 992.0
15 14.07 СЗ 3 10 км ясно +40.4 +16.6 25 +42 +42 опасность
перегрева
992.5 993.0
18 14.07 ЮВ 5 8000 м пыль ясно +36.7 +26.5 56 +53 +53 опасность
перегрева
994.1 994.0 +43.8
21 14.07 С 3 8000 м пыль ясно +33.7 +23.4 55 +44 +44 опасность
перегрева
994.1 994.0
00 15.07 З 2 7000 м пыль ясно +30.8 +23.6 66 +42 +42 опасность
перегрева
993.6 994.0
03 15.07 ЮЗ 2 6000 м пыль 3/0
[Ac trans]
+32.1 +25.2 67 +46 +48 опасность
перегрева
994.5 995.0
06 15.07 ЮВ 2 8000 м пыль ясно +39.5 +22.4 38 +48 +65 опасность
перегрева
995.1 995.0 +29.8
09 15.07 СЗ 6 7000 м пыль ясно +38.8 +27.3 52 +57 +66 опасность
перегрева
993.9 994.0
12 15.07 СЗ 5 10 км ясно +40.0 +20.7 33 +46 +51 опасность
перегрева
992.7 993.0
15 15.07 СЗ 4 10 км ясно +37.0 +21.2 40 +44 +44 опасность
перегрева
992.9 993.0
18 15.07 ЮЗ 1 6000 м пыль ясно +32.8 +26.2 68 +49 +49 опасность
перегрева
993.9 994.0 +42.1
21 15.07 ЮЗ 3 6000 м пыль ясно +31.1 +25.8 73 +46 +69 опасность
перегрева
993.2 993.0
00 16.07 Ю 3 6000 м пыль ясно +30.1 +24.0 70 +42 +42 опасность
перегрева
993.1 993.0
03 16.07 ЮВ 6 8000 м пыль 4/0
[Ac trans]
+32.4 +26.3 70 +49 +49 опасность
перегрева
994.0 994.0
06 16.07 Ю 6 10 км ясно +38.5 +22.6 40 +47 +53 опасность
перегрева
993.8 994.0 +29.8
09 16.07 З 3 10 км ясно +43.7 +20.6 27 +49 +67 опасность
перегрева
992.4 992.0
12 16.07 С 4 10 км ясно +39.1 +27.5 52 +57 +63 опасность
перегрева
991.8 992.0
15 16.07 СЗ 3 10 км ясно +35.9 +26.7 59 +53 +53 опасность
перегрева
993.2 993.0
18 16.07 ЮЗ 3 10 км ясно +34.2 +27.2 67 +53 +53 опасность
перегрева
994.3 994.0 +45.1
21 16.07 Ю 4 10 км ясно +33.8 +24.7 59 +47 +47 опасность
перегрева
993.9 994.0
00 17.07 ЮВ 5 10 км ясно +33.3 +22.5 53 +43 +43 опасность
перегрева
993.3 993.0
03 17.07 ЮВ 6 10 км ясно +34.7 +24.4 55 +47 +48 опасность
перегрева
994.5 995.0
06 17.07 Ю 6 10 км ясно +41.3 +16.0 23 +43 +50 опасность
перегрева
994.9 995.0 +33.0
09 17.07 З 5 10 км ясно +43.9 +12.5 16 +43 +54 опасность
перегрева
993.8 994.0
12 17.07 ЮЗ 7 10 км ясно +41.4 +20.9 31 +48 +50 опасность
перегрева
993.1 993.0
15 17.07 З 4 10 км ясно +36.5 +23.8 48 +47 +47 опасность
перегрева
993.9 994.0
18 17.07 СЗ 1 10 км ясно +33.2 +26.9 70 +51 +51 опасность
перегрева
995.6 996.0 +45.4
21 17.07 ЮВ 1 10 км ясно +32.7 +26.3 69 +49 +49 опасность
перегрева
995.6 996.0
00 18.07 Ю 4 10 км ясно +32.5 +22.9 57 +43 +43 опасность
перегрева
995.3 995.0
03 18.07 Ю 5 10 км ясно +33.3 +21.2 49 +41 +42 опасность
перегрева
997.3 997.0
06 18.07 Ю 5 10 км 3/0
[Ci fib]
+38.3 +17.8 30 +41 +50 опасность
перегрева
997.4 997.0 +31.6
09 18.07 З 6 10 км ясно +40.4 +21.9 35 +48 +57 опасность
перегрева
996.4 996.0
12 18.07 СЗ 6 10 км ясно +41.5 +19.4 28 +46 +50 опасность
перегрева
995.2 995.0
15 18.07 СЗ 3 10 км ясно +36.5 +23.1 46 +46 +46 опасность
перегрева
996.4 996.0
18 18.07 З 2 10 км 3/0
[Ci fib]
+33.7 +26.2 65 +50 +50 опасность
перегрева
998.1 998.0 +42.4
00 19.07 Ю 4 7000 м пыль ясно +32.2 +25.8 69 +47 +47 опасность
перегрева
997.6 998.0
03 19.07 Ю 4 8000 м пыль 5/0
[Ci fib]
+32.9 +22.7 55 +43 +44 опасность
перегрева
999.0 999.0
06 19.07 Ю 3 10 км ясно +37.0 +24.5 49 +49 +64 опасность
перегрева
999.0 999.0 +32.2
12 19.07 З 5 10 км ясно +38.3 +22.3 40 +47 +51 опасность
перегрева
996.9 997.0

 

Местоположение метеостанции Ras Al Khaimah Int Airport (ОАЭ): широта 25.62 долгота 55.93 высота над уровнем моря 31 м.

В архиве по умолчанию представлена погода в Ras Al Khaimah Int Airport за последнюю неделю. Архивные данные за месяц целиком и за предыдущие месяцы, начиная с января 2011 года, Вы можете получить, выбрав интересующий диапазон дат из раскрывающегося списка и нажав кнопку "Ввод!".


*Определитесь, кто Вы:
робот инопланетянин человек

Внимание! Время в таблицах - всемирное. Для получения местного времени необходимо прибавить поправку, которая в Ras Al Khaimah Int Airport равна 4 ч.

Смотрите также архив погоды в соседних городах и на ближайших метеорологических станциях:

Погода в Diba (Оман) (32 км)
Погода в Sharjah (ОАЭ) (52 км)
Погода в Khasab Airport (Оман) (68 км)
Погода в Fujairah (ОАЭ) (70 км)
Погода в Khasab (Оман) (73 км)
Погода в Dubai (ОАЭ) (73 км)
Погода в Dubai Al Maktoum Int Airport (ОАЭ) (111 км)
Погода в Abu Musa Island (Иран) (113 км)
Погода в Sirri Island (Иран) (142 км)
Погода в Sohar Majis (Оман) (146 км)

Пояснения к столбцам:

Ветер - указаны скорость ветра в м/с - средняя за 10 мин, порывы в срок и между сроками (в фигурных скобках) и направление, откуда дует ветер: С - северный, СВ - северо-восточный, В - восточный, ЮВ - юго-восточный, Ю - южный, ЮЗ - юго-западный, З - западный, СЗ - северо-западный.
Видимость - горизонтальная дальность видимости в метрах или километрах. При видимости от 1 до 10 км при отсутствии осадков обычно наблюдается дымка, при ухудшении видимости до 1 км и менее - туман. В сухую погоду видимость может ухудшаться дымом, пылью или мглою.
Явления - указаны атмосферные явления, наблюдавшиеся в срок или в последний час перед сроком; фигурными скобками обозначены явления, наблюдавшиеся между сроками (за 1-3 часа до срока); квадратными скобками обозначены град или гололедные отложения с указанием их диаметра в мм.
Облачность - указаны через наклонную черту общая и нижняя облачность в баллах и высота нижней границы облаков в метрах; квадратными скобками обозначены формы облаков: Ci - перистые, Cs - перисто-слоистые, Cc - перисто-кучевые, Ac - высококучевые, As - высокослоистые, Sc - слоисто-кучевые, Ns - слоисто-дождевые, Cu - кучевые, Cb - кучево-дождевые. Подробнее классификацию облаков см. в Атласе облаков (PDF).
T - Температура воздуха - температура, измеренная на высоте 2 м над землей.
Td - Температура точки росы - температура, при понижении до которой содержащийся в воздухе водяной пар достигнет насыщения.
f - Относительная влажность воздуха - влажноcть воздуха, измеренная на высоте 2 м над землей.
Te - Эффективная температура - температура, которую ощущает одетый по сезону человек в тени. Характеристика душности погоды. При расчете учитывается влияние влажности воздуха и скорости ветра на теплоощущения человека.
Tes - Эффективная температура на солнце - температура, которую ощущает человек, с поправкой на солнечный нагрев. Характеристика знойности погоды. Зависит от высоты солнца над горизонтом, облачности и скорости ветра. Ночью, в пасмурную погоду, а также при ветре 12 м/с и более поправка равна нулю.
P - Атмосферное давление - приведенное к уровню моря атмосферное давление.
Po - Атмосферное давление - измеренное на уровне метеостанции атмосферное давление.
Tmin - Минимальная температура - минимум температуры воздуха на высоте 2 м над землей.
Tmax - Максимальная температура - максимум температуры воздуха на высоте 2 м над землей.
R - Количество осадков - Количество выпавших осадков за период времени, мм. При наведении курсора мыши на число - период времени, за который выпало указанное количество осадков.
R24 - Количество осадков - Количество выпавших осадков за 24 часа, мм.
S - Снежный покров - Высота снежного покрова, см. При наведении курсора мыши на число - состояние снежного покрова и степень покрытия местности в баллах.